Regional Weather Roundup
Issued by NWS Midland/Odessa, TX

Skip options and go directly to product.
Home | Oldest Version | Previous Version | Current Version | All | Text Only | Save Text | Print | Product List | Glossary Off

Skip product version selection by date and time.   

574
ASUS44 KMAF 020610
RWRMAF
MIDLAND AREA WEATHER ROUNDUP
NATIONAL WEATHER SERVICE MIDLAND TX
100 AM CDT MON MAY 02 2016

...IN SOUTHWEST TEXAS AND SOUTHEAST NEW MEXICO...

CITY           SKY/WX    TMP DP  RH WIND       PRES   REMARKS
ALPINE         CLOUDY    48  36  62 N15       30.27R
ANDREWS        CLOUDY    48  36  64 N12G17    30.24R
ARTESIA        CLOUDY    46  37  71 NE10      30.29S
BIG SPRING     CLOUDY    50  38  62 N16G24    30.22R
CARLSBAD       CLOUDY    48  36  63 N14       30.26S
DRYDEN           N/A     59  43  55 N17G26    30.12S
FORT STOCKTON  CLOUDY    55  37  50 N12       30.19S
GUAD PASS      CLOUDY    38  35  89 NE26      30.25R WCI  26
HOBBS          CLOUDY    45  36  70 N17       30.25F WCI  37
MARFA          CLOUDY    46  35  65 NE23      30.19S WCI  38
MIDLAND AIRPK  CLOUDY    53  38  58 NE10G18   30.22R
MIDLAND INTL   CLOUDY    52  38  58 N16       30.20S
ODESSA         CLOUDY    51  37  58 NE16G23   30.21S
PECOS          CLOUDY    52  37  55 N14       30.23S
PRESIDIO       FAIR      58  37  46 N21G30    30.12R
SEMINOLE       CLOUDY    46  35  64 N14       30.24S
SNYDER           N/A     50  40  68 N16G24    30.20R
WINK           CLOUDY    51  37  58 N13       30.22S
$$
...OTHER STATIONS IN TEXAS...

CITY           SKY/WX    TMP DP  RH WIND       PRES   REMARKS
ABILENE        CLOUDY    53  45  74 N14G26    30.19R
AMARILLO       CLOUDY    41  37  86 N9        30.26S WCI  35
AUSTIN         TSTM      68  55  63 N8        30.00R
BROWNSVILLE    CLOUDY    78  76  93 NE6       29.81F
CORPUS CHRISTI CLOUDY    79  73  82 N8        29.85S
DALLAS FTW     PTCLDY    62  49  62 N20G28    30.06F
DEL RIO        CLOUDY    66  57  72 NW6       30.01R
EL PASO        CLEAR     47  35  63 NE8       30.18R
HOUSTON INT    CLOUDY    72  70  93 E7        29.93S
LUBBOCK        CLOUDY    45  36  70 N13       30.24F WCI  39
SAN ANGELO     CLOUDY    57  45  64 NE14G24   30.12F
SAN ANTONIO    CLOUDY    70  53  54 N15G23    29.97F
WACO           CLOUDY    65  52  62 N13       30.03S
WICHITA FALLS  NOT AVBL
$$
...OTHER LOCATIONS IN NEW MEXICO...

CITY           SKY/WX    TMP DP  RH WIND       PRES   REMARKS
ALAMAGORDO     CLEAR     48  30  49 S22G28    30.16R
ALBUQUERQUE    CLOUDY    41  32  70 E16       30.26S WCI  33
CANNON AFB     CLOUDY    39  39  98 NE10      30.28R WCI  33
CLOVIS         CLOUDY    37  34  87 N7        30.29R WCI  32
HOLLOMAN AFB   CLEAR     49  31  50 SE18      30.14R
ROSWELL        CLOUDY    46  37  71 N8        30.29S
RUIDOSO          N/A     32  32 100 SE6       30.30S WCI  26
SANTA FE       CLOUDY    37  31  78 S13       30.26S WCI  29
TRUTH OR CONSE LGT RAIN  44  33  65 N18G26    30.19R WCI  36
TUCUMCARI      CLEAR     37  33  85 NE3       30.28S
$$

USA.gov is the U.S. government's official web portal to all federal, state and local government web resources and services.